TimeEST,TemperatureF,Dew PointF,Humidity,Sea Level PressureIn,VisibilityMPH,Wind Direction,Wind SpeedMPH,Gust SpeedMPH,PrecipitationIn,Events,Conditions,WindDirDegrees,DateUTC
12:56 AM,48.0,33.1,56,29.71,10.0,Calm,Calm,-,N/A,,Clear,0,2013-11-19 05:56:00
1:56 AM,45.0,30.9,58,29.73,10.0,North,6.9,-,N/A,,Clear,350,2013-11-19 06:56:00
2:56 AM,44.1,30.9,60,29.76,10.0,NW,5.8,-,N/A,,Clear,320,2013-11-19 07:56:00
3:56 AM,46.0,30.9,56,29.78,10.0,NW,11.5,-,N/A,,Mostly Cloudy,310,2013-11-19 08:56:00
4:56 AM,44.1,24.1,45,29.81,10.0,NW,17.3,25.3,N/A,,Scattered Clouds,310,2013-11-19 09:56:00
5:56 AM,43.0,21.9,43,29.85,10.0,WNW,8.1,20.7,N/A,,Clear,300,2013-11-19 10:56:00
6:56 AM,42.1,23.0,47,29.88,10.0,WNW,15.0,25.3,N/A,,Scattered Clouds,300,2013-11-19 11:56:00
7:56 AM,44.1,24.1,45,29.91,10.0,WNW,16.1,21.9,N/A,,Overcast,290,2013-11-19 12:56:00
8:56 AM,44.1,25.0,47,29.93,10.0,NNW,18.4,27.6,N/A,,Partly Cloudy,330,2013-11-19 13:56:00
9:56 AM,45.0,25.0,46,29.94,10.0,WNW,23.0,29.9,N/A,,Clear,300,2013-11-19 14:56:00
10:56 AM,46.0,23.0,40,29.96,10.0,NNW,18.4,25.3,N/A,,Clear,330,2013-11-19 15:56:00
11:56 AM,46.9,21.9,37,29.96,10.0,NW,21.9,32.2,N/A,,Clear,310,2013-11-19 16:56:00
12:56 PM,46.9,21.9,37,29.98,10.0,WNW,19.6,27.6,N/A,,Clear,300,2013-11-19 17:56:00
1:56 PM,46.9,21.0,36,30.00,10.0,NNW,16.1,31.1,N/A,,Clear,330,2013-11-19 18:56:00
2:56 PM,46.0,21.0,37,30.03,10.0,NNW,20.7,31.1,N/A,,Clear,330,2013-11-19 19:56:00
3:56 PM,44.1,21.0,40,30.07,10.0,NNW,17.3,23.0,N/A,,Clear,330,2013-11-19 20:56:00
4:56 PM,41.0,21.0,45,30.11,10.0,NNW,16.1,21.9,N/A,,Clear,330,2013-11-19 21:56:00
5:56 PM,39.9,21.0,47,30.14,10.0,NW,16.1,23.0,N/A,,Clear,320,2013-11-19 22:56:00
6:56 PM,37.9,21.0,51,30.17,10.0,NW,16.1,24.2,N/A,,Clear,320,2013-11-19 23:56:00
7:56 PM,37.0,21.0,52,30.19,10.0,NNW,13.8,23.0,N/A,,Clear,330,2013-11-20 00:56:00
8:56 PM,36.0,21.0,55,30.21,10.0,NNW,12.7,20.7,N/A,,Clear,330,2013-11-20 01:56:00
9:56 PM,36.0,19.9,52,30.23,10.0,NNW,16.1,26.5,N/A,,Clear,330,2013-11-20 02:56:00
10:56 PM,35.1,19.9,54,30.25,10.0,NNW,17.3,31.1,N/A,,Clear,340,2013-11-20 03:56:00
11:56 PM,33.1,19.0,56,30.30,10.0,NNW,9.2,-,N/A,,Clear,330,2013-11-20 04:56:00